Year,Month,Day,Hour,Minute,Value (Times are PST for insolation in W/m^2)
2018,08,04,00,00,0.00
2018,08,04,00,01,0.00
2018,08,04,00,02,0.00
2018,08,04,00,03,0.00
2018,08,04,00,04,0.00
2018,08,04,00,05,0.00
2018,08,04,00,06,0.00
2018,08,04,00,07,0.00
2018,08,04,00,08,0.00
2018,08,04,00,09,0.00
2018,08,04,00,10,0.00
2018,08,04,00,11,0.00
2018,08,04,00,12,0.00
2018,08,04,00,13,0.00
2018,08,04,00,14,0.00
2018,08,04,00,15,0.00
2018,08,04,00,16,0.00
2018,08,04,00,17,0.00
2018,08,04,00,18,0.00
2018,08,04,00,19,0.00
2018,08,04,00,20,0.00
2018,08,04,00,21,0.00
2018,08,04,00,22,0.00
2018,08,04,00,23,0.00
2018,08,04,00,24,0.00
2018,08,04,00,25,0.00
2018,08,04,00,26,0.00
2018,08,04,00,27,0.00
2018,08,04,00,28,0.00
2018,08,04,00,29,0.00
2018,08,04,00,30,0.00
2018,08,04,00,31,0.00
2018,08,04,00,32,0.00
2018,08,04,00,33,0.00
2018,08,04,00,34,0.00
2018,08,04,00,35,0.00
2018,08,04,00,36,0.00
2018,08,04,00,37,0.00
2018,08,04,00,38,0.00
2018,08,04,00,39,0.00
2018,08,04,00,40,0.00
2018,08,04,00,41,0.00
2018,08,04,00,42,0.00
2018,08,04,00,43,0.00
2018,08,04,00,44,0.00
2018,08,04,00,45,0.00
2018,08,04,00,46,0.00
2018,08,04,00,47,0.00
2018,08,04,00,48,0.00
2018,08,04,00,49,0.00
2018,08,04,00,50,0.00
2018,08,04,00,51,0.00
2018,08,04,00,52,0.00
2018,08,04,00,53,0.00
2018,08,04,00,54,0.00
2018,08,04,00,55,0.00
2018,08,04,00,56,0.00
2018,08,04,00,57,0.00
2018,08,04,00,58,0.00
2018,08,04,00,59,0.00
2018,08,04,01,00,0.00
2018,08,04,01,01,0.00
2018,08,04,01,02,0.00
2018,08,04,01,03,0.00
2018,08,04,01,04,0.00
2018,08,04,01,05,0.00
2018,08,04,01,06,0.00
2018,08,04,01,07,0.00
2018,08,04,01,08,0.00
2018,08,04,01,09,0.00
2018,08,04,01,10,0.00
2018,08,04,01,11,0.00
2018,08,04,01,12,0.00
2018,08,04,01,13,0.00
2018,08,04,01,14,0.00
2018,08,04,01,15,0.00
2018,08,04,01,16,0.00
2018,08,04,01,17,0.00
2018,08,04,01,18,0.00
2018,08,04,01,19,0.00
2018,08,04,01,20,0.00
2018,08,04,01,21,0.00
2018,08,04,01,22,0.00
2018,08,04,01,23,0.00
2018,08,04,01,24,0.00
2018,08,04,01,25,0.00
2018,08,04,01,26,0.00
2018,08,04,01,27,0.00
2018,08,04,01,28,0.00
2018,08,04,01,29,0.00
2018,08,04,01,30,0.00
2018,08,04,01,31,0.00
2018,08,04,01,32,0.00
2018,08,04,01,33,0.00
2018,08,04,01,34,0.00
2018,08,04,01,35,0.00
2018,08,04,01,36,0.00
2018,08,04,01,37,0.00
2018,08,04,01,38,0.00
2018,08,04,01,39,0.00
2018,08,04,01,40,0.00
2018,08,04,01,41,0.00
2018,08,04,01,42,0.00
2018,08,04,01,43,0.00
2018,08,04,01,44,0.00
2018,08,04,01,45,0.00
2018,08,04,01,46,0.00
2018,08,04,01,47,0.00
2018,08,04,01,48,0.00
2018,08,04,01,49,0.00
2018,08,04,01,50,0.00
2018,08,04,01,51,0.00
2018,08,04,01,52,0.00
2018,08,04,01,53,0.00
2018,08,04,01,54,0.00
2018,08,04,01,55,0.00
2018,08,04,01,56,0.00
2018,08,04,01,57,0.00
2018,08,04,01,58,0.00
2018,08,04,01,59,0.00
2018,08,04,02,00,0.00
2018,08,04,02,01,0.00
2018,08,04,02,02,0.00
2018,08,04,02,03,0.00
2018,08,04,02,04,0.00
2018,08,04,02,05,0.00
2018,08,04,02,06,0.00
2018,08,04,02,07,0.00
2018,08,04,02,08,0.00
2018,08,04,02,09,0.00
2018,08,04,02,10,0.00
2018,08,04,02,11,0.00
2018,08,04,02,12,0.00
2018,08,04,02,13,0.00
2018,08,04,02,14,0.00
2018,08,04,02,15,0.00
2018,08,04,02,16,0.00
2018,08,04,02,17,0.00
2018,08,04,02,18,0.00
2018,08,04,02,19,0.00
2018,08,04,02,20,0.00
2018,08,04,02,21,0.00
2018,08,04,02,22,0.00
2018,08,04,02,23,0.00
2018,08,04,02,24,0.00
2018,08,04,02,25,0.00
2018,08,04,02,26,0.00
2018,08,04,02,27,0.00
2018,08,04,02,28,0.00
2018,08,04,02,29,0.00
2018,08,04,02,30,0.00
2018,08,04,02,31,0.00
2018,08,04,02,32,0.00
2018,08,04,02,33,0.00
2018,08,04,02,34,0.00
2018,08,04,02,35,0.00
2018,08,04,02,36,0.00
2018,08,04,02,37,0.00
2018,08,04,02,38,0.00
2018,08,04,02,39,0.00
2018,08,04,02,40,0.00
2018,08,04,02,41,0.00
2018,08,04,02,42,0.00
2018,08,04,02,43,0.00
2018,08,04,02,44,0.00
2018,08,04,02,45,0.00
2018,08,04,02,46,0.00
2018,08,04,02,47,0.00
2018,08,04,02,48,0.00
2018,08,04,02,49,0.00
2018,08,04,02,50,0.00
2018,08,04,02,51,0.00
2018,08,04,02,52,0.00
2018,08,04,02,53,0.00
2018,08,04,02,54,0.00
2018,08,04,02,55,0.00
2018,08,04,02,56,0.00
2018,08,04,02,57,0.00
2018,08,04,02,58,0.00
2018,08,04,02,59,0.00
2018,08,04,03,00,0.00
2018,08,04,03,01,0.00
2018,08,04,03,02,0.00
2018,08,04,03,03,0.00
2018,08,04,03,04,0.00
2018,08,04,03,05,0.00
2018,08,04,03,06,0.00
2018,08,04,03,07,0.00
2018,08,04,03,08,0.00
2018,08,04,03,09,0.00
2018,08,04,03,10,0.00
2018,08,04,03,11,0.00
2018,08,04,03,12,0.00
2018,08,04,03,13,0.00
2018,08,04,03,14,0.00
2018,08,04,03,15,0.00
2018,08,04,03,16,0.00
2018,08,04,03,17,0.00
2018,08,04,03,18,0.00
2018,08,04,03,19,0.00
2018,08,04,03,20,0.00
2018,08,04,03,21,0.00
2018,08,04,03,22,0.00
2018,08,04,03,23,0.00
2018,08,04,03,24,0.00
2018,08,04,03,25,0.00
2018,08,04,03,26,0.00
2018,08,04,03,27,0.00
2018,08,04,03,28,0.00
2018,08,04,03,29,0.00
2018,08,04,03,30,0.00
2018,08,04,03,31,0.00
2018,08,04,03,32,0.00
2018,08,04,03,33,0.00
2018,08,04,03,34,0.00
2018,08,04,03,35,0.00
2018,08,04,03,36,0.00
2018,08,04,03,37,0.00
2018,08,04,03,38,0.00
2018,08,04,03,39,0.00
2018,08,04,03,40,0.00
2018,08,04,03,41,0.00
2018,08,04,03,42,0.00
2018,08,04,03,43,0.00
2018,08,04,03,44,0.00
2018,08,04,03,45,0.00
2018,08,04,03,46,0.00
2018,08,04,03,47,0.00
2018,08,04,03,48,0.00
2018,08,04,03,49,0.00
2018,08,04,03,50,0.00
2018,08,04,03,51,0.00
2018,08,04,03,52,0.00
2018,08,04,03,53,0.00
2018,08,04,03,54,0.00
2018,08,04,03,55,0.00
2018,08,04,03,56,0.00
2018,08,04,03,57,0.00
2018,08,04,03,58,0.00
2018,08,04,03,59,0.00
2018,08,04,04,00,0.00
2018,08,04,04,01,0.00
2018,08,04,04,02,0.00
2018,08,04,04,03,0.00
2018,08,04,04,04,0.00
2018,08,04,04,05,0.00
2018,08,04,04,06,0.00
2018,08,04,04,07,0.00
2018,08,04,04,08,0.00
2018,08,04,04,09,0.00
2018,08,04,04,10,0.00
2018,08,04,04,11,0.00
2018,08,04,04,12,0.00
2018,08,04,04,13,0.00
2018,08,04,04,14,0.00
2018,08,04,04,15,0.00
2018,08,04,04,16,0.00
2018,08,04,04,17,0.00
2018,08,04,04,18,0.00
2018,08,04,04,19,0.00
2018,08,04,04,20,0.00
2018,08,04,04,21,0.00
2018,08,04,04,22,0.00
2018,08,04,04,23,0.00
2018,08,04,04,24,0.00
2018,08,04,04,25,0.00
2018,08,04,04,26,0.00
2018,08,04,04,27,0.00
2018,08,04,04,28,0.00
2018,08,04,04,29,0.00
2018,08,04,04,30,0.00
2018,08,04,04,31,0.00
2018,08,04,04,32,0.00
2018,08,04,04,33,0.00
2018,08,04,04,34,0.00
2018,08,04,04,35,0.00
2018,08,04,04,36,0.00
2018,08,04,04,37,0.00
2018,08,04,04,38,0.00
2018,08,04,04,39,0.00
2018,08,04,04,40,0.00
2018,08,04,04,41,0.00
2018,08,04,04,42,0.00
2018,08,04,04,43,0.00
2018,08,04,04,44,0.00
2018,08,04,04,45,0.00
2018,08,04,04,46,0.00
2018,08,04,04,47,0.00
2018,08,04,04,48,0.00
2018,08,04,04,49,0.00
2018,08,04,04,50,0.00
2018,08,04,04,51,0.00
2018,08,04,04,52,0.00
2018,08,04,04,53,0.00
2018,08,04,04,54,0.00
2018,08,04,04,55,0.00
2018,08,04,04,56,0.00
2018,08,04,04,57,0.00
2018,08,04,04,58,0.00
2018,08,04,04,59,0.00
2018,08,04,05,00,0.00
2018,08,04,05,01,0.00
2018,08,04,05,02,0.00
2018,08,04,05,03,0.00
2018,08,04,05,04,0.00
2018,08,04,05,05,0.00
2018,08,04,05,06,0.00
2018,08,04,05,07,0.00
2018,08,04,05,08,0.00
2018,08,04,05,09,0.00
2018,08,04,05,10,0.00
2018,08,04,05,11,0.00
2018,08,04,05,12,0.00
2018,08,04,05,13,0.00
2018,08,04,05,14,0.00
2018,08,04,05,15,0.00
2018,08,04,05,16,0.00
2018,08,04,05,17,0.00
2018,08,04,05,18,0.00
2018,08,04,05,19,0.00
2018,08,04,05,20,0.00
2018,08,04,05,21,0.00
2018,08,04,05,22,0.00
2018,08,04,05,23,0.00
2018,08,04,05,24,0.00
2018,08,04,05,25,0.00
2018,08,04,05,26,0.00
2018,08,04,05,27,0.00
2018,08,04,05,28,0.00
2018,08,04,05,29,0.00
2018,08,04,05,30,0.00
2018,08,04,05,31,0.00
2018,08,04,05,32,0.00
2018,08,04,05,33,0.00
2018,08,04,05,34,0.00
2018,08,04,05,35,0.00
2018,08,04,05,36,0.00
2018,08,04,05,37,0.00
2018,08,04,05,38,0.00
2018,08,04,05,39,0.00
2018,08,04,05,40,0.00
2018,08,04,05,41,0.00
2018,08,04,05,42,0.00
2018,08,04,05,43,0.00
2018,08,04,05,44,0.00
2018,08,04,05,45,0.00
2018,08,04,05,46,0.00
2018,08,04,05,47,0.00
2018,08,04,05,48,0.00
2018,08,04,05,49,0.00
2018,08,04,05,50,0.00
2018,08,04,05,51,0.00
2018,08,04,05,52,0.00
2018,08,04,05,53,0.00
2018,08,04,05,54,0.00
2018,08,04,05,55,0.00
2018,08,04,05,56,0.00
2018,08,04,05,57,0.00
2018,08,04,05,58,0.00
2018,08,04,05,59,0.00
2018,08,04,06,00,0.00
2018,08,04,06,01,0.00
2018,08,04,06,02,0.00
2018,08,04,06,03,3.10
2018,08,04,06,04,5.00
2018,08,04,06,05,5.00
2018,08,04,06,06,5.00
2018,08,04,06,07,5.50
2018,08,04,06,08,7.00
2018,08,04,06,09,7.00
2018,08,04,06,10,7.00
2018,08,04,06,11,8.40
2018,08,04,06,12,9.00
2018,08,04,06,13,9.00
2018,08,04,06,14,9.00
2018,08,04,06,15,9.80
2018,08,04,06,16,11.00
2018,08,04,06,17,11.00
2018,08,04,06,18,11.00
2018,08,04,06,19,11.00
2018,08,04,06,20,11.10
2018,08,04,06,21,12.00
2018,08,04,06,22,12.00
2018,08,04,06,23,13.00
2018,08,04,06,24,14.00
2018,08,04,06,25,15.50
2018,08,04,06,26,17.80
2018,08,04,06,27,18.10
2018,08,04,06,28,19.50
2018,08,04,06,29,21.80
2018,08,04,06,30,24.00
2018,08,04,06,31,23.70
2018,08,04,06,32,24.50
2018,08,04,06,33,27.60
2018,08,04,06,34,32.10
2018,08,04,06,35,33.50
2018,08,04,06,36,35.80
2018,08,04,06,37,38.00
2018,08,04,06,38,39.60
2018,08,04,06,39,41.50
2018,08,04,06,40,43.70
2018,08,04,06,41,46.10
2018,08,04,06,42,47.00
2018,08,04,06,43,47.70
2018,08,04,06,44,50.00
2018,08,04,06,45,52.20
2018,08,04,06,46,53.80
2018,08,04,06,47,55.90
2018,08,04,06,48,60.20
2018,08,04,06,49,62.20
2018,08,04,06,50,63.80
2018,08,04,06,51,67.10
2018,08,04,06,52,69.60
2018,08,04,06,53,71.50
2018,08,04,06,54,73.80
2018,08,04,06,55,77.20
2018,08,04,06,56,79.50
2018,08,04,06,57,81.80
2018,08,04,06,58,83.50
2018,08,04,06,59,86.60
2018,08,04,07,00,89.40
2018,08,04,07,01,90.90
2018,08,04,07,02,93.40
2018,08,04,07,03,97.20
2018,08,04,07,04,98.80
2018,08,04,07,05,102.00
2018,08,04,07,06,104.00
2018,08,04,07,07,93.40
2018,08,04,07,08,75.70
2018,08,04,07,09,73.00
2018,08,04,07,10,82.00
2018,08,04,07,11,95.90
2018,08,04,07,12,108.80
2018,08,04,07,13,119.60
2018,08,04,07,14,123.00
2018,08,04,07,15,127.60
2018,08,04,07,16,130.40
2018,08,04,07,17,134.20
2018,08,04,07,18,136.50
2018,08,04,07,19,140.00
2018,08,04,07,20,141.60
2018,08,04,07,21,145.00
2018,08,04,07,22,148.70
2018,08,04,07,23,151.60
2018,08,04,07,24,155.20
2018,08,04,07,25,156.80
2018,08,04,07,26,160.10
2018,08,04,07,27,162.60
2018,08,04,07,28,166.00
2018,08,04,07,29,168.70
2018,08,04,07,30,163.30
2018,08,04,07,31,126.20
2018,08,04,07,32,178.40
2018,08,04,07,33,181.10
2018,08,04,07,34,184.30
2018,08,04,07,35,187.20
2018,08,04,07,36,189.70
2018,08,04,07,37,193.60
2018,08,04,07,38,197.50
2018,08,04,07,39,199.40
2018,08,04,07,40,202.10
2018,08,04,07,41,205.90
2018,08,04,07,42,210.00
2018,08,04,07,43,213.60
2018,08,04,07,44,216.30
2018,08,04,07,45,218.60
2018,08,04,07,46,221.10
2018,08,04,07,47,226.00
2018,08,04,07,48,230.90
2018,08,04,07,49,235.80
2018,08,04,07,50,248.70
2018,08,04,07,51,251.90
2018,08,04,07,52,222.30
2018,08,04,07,53,265.10
2018,08,04,07,54,267.00
2018,08,04,07,55,155.60
2018,08,04,07,56,90.20
2018,08,04,07,57,94.00
2018,08,04,07,58,119.70
2018,08,04,07,59,282.80
2018,08,04,08,00,311.30
2018,08,04,08,01,314.00
2018,08,04,08,02,314.20
2018,08,04,08,03,321.10
2018,08,04,08,04,331.00
2018,08,04,08,05,346.10
2018,08,04,08,06,353.80
2018,08,04,08,07,357.20
2018,08,04,08,08,369.00
2018,08,04,08,09,236.60
2018,08,04,08,10,182.60
2018,08,04,08,11,190.00
2018,08,04,08,12,185.30
2018,08,04,08,13,179.40
2018,08,04,08,14,241.00
2018,08,04,08,15,241.00
2018,08,04,08,16,199.40
2018,08,04,08,17,170.20
2018,08,04,08,18,190.40
2018,08,04,08,19,213.80
2018,08,04,08,20,404.60
2018,08,04,08,21,438.00
2018,08,04,08,22,291.60
2018,08,04,08,23,150.50
2018,08,04,08,24,145.00
2018,08,04,08,25,144.10
2018,08,04,08,26,148.50
2018,08,04,08,27,153.50
2018,08,04,08,28,153.50
2018,08,04,08,29,146.50
2018,08,04,08,30,135.80
2018,08,04,08,31,125.20
2018,08,04,08,32,114.80
2018,08,04,08,33,110.80
2018,08,04,08,34,109.00
2018,08,04,08,35,108.20
2018,08,04,08,36,107.00
2018,08,04,08,37,108.20
2018,08,04,08,38,112.80
2018,08,04,08,39,123.80
2018,08,04,08,40,136.30
2018,08,04,08,41,153.70
2018,08,04,08,42,162.00
2018,08,04,08,43,158.50
2018,08,04,08,44,156.90
2018,08,04,08,45,161.80
2018,08,04,08,46,160.40
2018,08,04,08,47,155.00
2018,08,04,08,48,156.20
2018,08,04,08,49,161.10
2018,08,04,08,50,162.50
2018,08,04,08,51,165.10
2018,08,04,08,52,170.00
2018,08,04,08,53,165.80
2018,08,04,08,54,172.60
2018,08,04,08,55,192.00
2018,08,04,08,56,178.40
2018,08,04,08,57,171.00
2018,08,04,08,58,172.90
2018,08,04,08,59,175.50
2018,08,04,09,00,182.90
2018,08,04,09,01,218.90
2018,08,04,09,02,296.00
2018,08,04,09,03,346.10
2018,08,04,09,04,354.00
2018,08,04,09,05,296.70
2018,08,04,09,06,356.30
2018,08,04,09,07,359.20
2018,08,04,09,08,405.10
2018,08,04,09,09,387.20
2018,08,04,09,10,393.70
2018,08,04,09,11,414.00
2018,08,04,09,12,433.00
2018,08,04,09,13,453.10
2018,08,04,09,14,370.00
2018,08,04,09,15,386.80
2018,08,04,09,16,416.30
2018,08,04,09,17,424.80
2018,08,04,09,18,414.60
2018,08,04,09,19,442.40
2018,08,04,09,20,469.40
2018,08,04,09,21,489.30
2018,08,04,09,22,452.70
2018,08,04,09,23,494.20
2018,08,04,09,24,504.40
2018,08,04,09,25,515.20
2018,08,04,09,26,523.90
2018,08,04,09,27,520.70
2018,08,04,09,28,519.20
2018,08,04,09,29,525.10
2018,08,04,09,30,519.30
2018,08,04,09,31,515.00
2018,08,04,09,32,514.60
2018,08,04,09,33,518.30
2018,08,04,09,34,530.40
2018,08,04,09,35,540.00
2018,08,04,09,36,535.50
2018,08,04,09,37,545.80
2018,08,04,09,38,550.40
2018,08,04,09,39,559.20
2018,08,04,09,40,559.40
2018,08,04,09,41,562.20
2018,08,04,09,42,549.30
2018,08,04,09,43,563.70
2018,08,04,09,44,569.20
2018,08,04,09,45,572.20
2018,08,04,09,46,573.10
2018,08,04,09,47,578.30
2018,08,04,09,48,588.60
2018,08,04,09,49,593.60
2018,08,04,09,50,592.00
2018,08,04,09,51,592.00
2018,08,04,09,52,593.50
2018,08,04,09,53,593.90
2018,08,04,09,54,592.00
2018,08,04,09,55,593.50
2018,08,04,09,56,594.00
2018,08,04,09,57,596.00
2018,08,04,09,58,596.00
2018,08,04,09,59,596.80
2018,08,04,10,00,598.50
2018,08,04,10,01,599.00
2018,08,04,10,02,598.20
2018,08,04,10,03,600.70
2018,08,04,10,04,603.00
2018,08,04,10,05,603.00
2018,08,04,10,06,603.00
2018,08,04,10,07,603.00
2018,08,04,10,08,603.00
2018,08,04,10,09,604.50
2018,08,04,10,10,605.00
2018,08,04,10,11,606.30
2018,08,04,10,12,608.00
2018,08,04,10,13,608.80
2018,08,04,10,14,611.00
2018,08,04,10,15,612.00
2018,08,04,10,16,612.80
2018,08,04,10,17,614.80
2018,08,04,10,18,619.00
2018,08,04,10,19,619.80
2018,08,04,10,20,623.50
2018,08,04,10,21,627.00
2018,08,04,10,22,628.00
2018,08,04,10,23,630.30
2018,08,04,10,24,631.00
2018,08,04,10,25,631.60
2018,08,04,10,26,635.30
2018,08,04,10,27,636.80
2018,08,04,10,28,639.00
2018,08,04,10,29,640.00
2018,08,04,10,30,641.50
2018,08,04,10,31,642.90
2018,08,04,10,32,647.30
2018,08,04,10,33,649.00
2018,08,04,10,34,649.00
2018,08,04,10,35,649.50
2018,08,04,10,36,652.60
2018,08,04,10,37,654.00
2018,08,04,10,38,656.50
2018,08,04,10,39,651.70
2018,08,04,10,40,653.60
2018,08,04,10,41,663.00
2018,08,04,10,42,663.50
2018,08,04,10,43,666.60
2018,08,04,10,44,669.50
2018,08,04,10,45,670.90
2018,08,04,10,46,671.20
2018,08,04,10,47,674.00
2018,08,04,10,48,677.00
2018,08,04,10,49,678.00
2018,08,04,10,50,680.90
2018,08,04,10,51,683.50
2018,08,04,10,52,685.80
2018,08,04,10,53,687.30
2018,08,04,10,54,689.60
2018,08,04,10,55,691.80
2018,08,04,10,56,693.50
2018,08,04,10,57,695.20
2018,08,04,10,58,697.50
2018,08,04,10,59,700.60
2018,08,04,11,00,701.20
2018,08,04,11,01,704.00
2018,08,04,11,02,707.00
2018,08,04,11,03,709.60
2018,08,04,11,04,710.70
2018,08,04,11,05,713.00
2018,08,04,11,06,714.00
2018,08,04,11,07,715.30
2018,08,04,11,08,717.60
2018,08,04,11,09,719.00
2018,08,04,11,10,720.00
2018,08,04,11,11,717.10
2018,08,04,11,12,714.20
2018,08,04,11,13,707.60
2018,08,04,11,14,702.60
2018,08,04,11,15,697.00
2018,08,04,11,16,687.80
2018,08,04,11,17,684.10
2018,08,04,11,18,680.80
2018,08,04,11,19,695.80
2018,08,04,11,20,706.10
2018,08,04,11,21,710.30
2018,08,04,11,22,711.40
2018,08,04,11,23,709.20
2018,08,04,11,24,709.00
2018,08,04,11,25,708.80
2018,08,04,11,26,704.20
2018,08,04,11,27,706.60
2018,08,04,11,28,718.20
2018,08,04,11,29,727.90
2018,08,04,11,30,734.50
2018,08,04,11,31,737.50
2018,08,04,11,32,738.00
2018,08,04,11,33,741.00
2018,08,04,11,34,744.70
2018,08,04,11,35,747.00
2018,08,04,11,36,747.60
2018,08,04,11,37,751.00
2018,08,04,11,38,755.00
2018,08,04,11,39,756.00
2018,08,04,11,40,757.60
2018,08,04,11,41,758.90
2018,08,04,11,42,761.20
2018,08,04,11,43,763.50
2018,08,04,11,44,764.20
2018,08,04,11,45,764.00
2018,08,04,11,46,765.60
2018,08,04,11,47,769.00
2018,08,04,11,48,770.00
2018,08,04,11,49,770.00
2018,08,04,11,50,770.60
2018,08,04,11,51,772.40
2018,08,04,11,52,773.00
2018,08,04,11,53,774.30
2018,08,04,11,54,773.50
2018,08,04,11,55,774.80
2018,08,04,11,56,779.00
2018,08,04,11,57,779.20
2018,08,04,11,58,779.60
2018,08,04,11,59,780.50
2018,08,04,12,00,782.00
2018,08,04,12,01,783.50
2018,08,04,12,02,785.80
2018,08,04,12,03,787.70
2018,08,04,12,04,786.80
2018,08,04,12,05,789.00
2018,08,04,12,06,789.00
2018,08,04,12,07,790.30
2018,08,04,12,08,791.00
2018,08,04,12,09,792.80
2018,08,04,12,10,793.00
2018,08,04,12,11,793.60
2018,08,04,12,12,796.20
2018,08,04,12,13,798.00
2018,08,04,12,14,796.70
2018,08,04,12,15,799.10
2018,08,04,12,16,801.80
2018,08,04,12,17,800.30
2018,08,04,12,18,802.00
2018,08,04,12,19,802.40
2018,08,04,12,20,803.00
2018,08,04,12,21,804.20
2018,08,04,12,22,805.00
2018,08,04,12,23,805.00
2018,08,04,12,24,807.00
2018,08,04,12,25,807.60
2018,08,04,12,26,807.40
2018,08,04,12,27,807.60
2018,08,04,12,28,810.00
2018,08,04,12,29,810.00
2018,08,04,12,30,810.00
2018,08,04,12,31,811.70
2018,08,04,12,32,811.00
2018,08,04,12,33,814.00
2018,08,04,12,34,814.00
2018,08,04,12,35,815.20
2018,08,04,12,36,816.80
2018,08,04,12,37,817.00
2018,08,04,12,38,820.70
2018,08,04,12,39,819.50
2018,08,04,12,40,819.50
2018,08,04,12,41,819.00
2018,08,04,12,42,819.80
2018,08,04,12,43,820.50
2018,08,04,12,44,822.80
2018,08,04,12,45,823.10
2018,08,04,12,46,824.00
2018,08,04,12,47,824.80
2018,08,04,12,48,826.00
2018,08,04,12,49,824.80
2018,08,04,12,50,827.00
2018,08,04,12,51,826.20
2018,08,04,12,52,826.00
2018,08,04,12,53,827.10
2018,08,04,12,54,829.20
2018,08,04,12,55,828.00
2018,08,04,12,56,829.20
2018,08,04,12,57,830.80
2018,08,04,12,58,828.40
2018,08,04,12,59,830.00
2018,08,04,13,00,830.80
2018,08,04,13,01,832.20
2018,08,04,13,02,830.50
2018,08,04,13,03,830.60
2018,08,04,13,04,830.20
2018,08,04,13,05,830.90
2018,08,04,13,06,834.40
2018,08,04,13,07,831.00
2018,08,04,13,08,832.60
2018,08,04,13,09,834.00
2018,08,04,13,10,833.00
2018,08,04,13,11,833.00
2018,08,04,13,12,834.80
2018,08,04,13,13,835.00
2018,08,04,13,14,835.00
2018,08,04,13,15,835.00
2018,08,04,13,16,835.00
2018,08,04,13,17,835.00
2018,08,04,13,18,835.00
2018,08,04,13,19,834.90
2018,08,04,13,20,833.30
2018,08,04,13,21,835.80
2018,08,04,13,22,837.60
2018,08,04,13,23,836.00
2018,08,04,13,24,836.30
2018,08,04,13,25,837.80
2018,08,04,13,26,837.10
2018,08,04,13,27,836.70
2018,08,04,13,28,835.80
2018,08,04,13,29,837.60
2018,08,04,13,30,837.00
2018,08,04,13,31,837.60
2018,08,04,13,32,835.80
2018,08,04,13,33,836.70
2018,08,04,13,34,835.00
2018,08,04,13,35,835.60
2018,08,04,13,36,837.40
2018,08,04,13,37,837.50
2018,08,04,13,38,837.00
2018,08,04,13,39,835.50
2018,08,04,13,40,835.00
2018,08,04,13,41,835.00
2018,08,04,13,42,835.00
2018,08,04,13,43,835.80
2018,08,04,13,44,837.00
2018,08,04,13,45,837.00
2018,08,04,13,46,833.90
2018,08,04,13,47,834.80
2018,08,04,13,48,836.60
2018,08,04,13,49,833.50
2018,08,04,13,50,834.20
2018,08,04,13,51,833.00
2018,08,04,13,52,833.00
2018,08,04,13,53,833.00
2018,08,04,13,54,830.30
2018,08,04,13,55,834.70
2018,08,04,13,56,833.00
2018,08,04,13,57,832.20
2018,08,04,13,58,831.00
2018,08,04,13,59,831.00
2018,08,04,14,00,831.00
2018,08,04,14,01,832.70
2018,08,04,14,02,830.90
2018,08,04,14,03,830.00
2018,08,04,14,04,830.00
2018,08,04,14,05,830.00
2018,08,04,14,06,830.00
2018,08,04,14,07,828.40
2018,08,04,14,08,828.00
2018,08,04,14,09,825.70
2018,08,04,14,10,824.00
2018,08,04,14,11,825.50
2018,08,04,14,12,825.40
2018,08,04,14,13,823.60
2018,08,04,14,14,825.50
2018,08,04,14,15,824.20
2018,08,04,14,16,823.00
2018,08,04,14,17,822.50
2018,08,04,14,18,821.00
2018,08,04,14,19,822.00
2018,08,04,14,20,821.70
2018,08,04,14,21,821.00
2018,08,04,14,22,820.90
2018,08,04,14,23,819.30
2018,08,04,14,24,820.00
2018,08,04,14,25,817.00
2018,08,04,14,26,816.50
2018,08,04,14,27,816.60
2018,08,04,14,28,814.70
2018,08,04,14,29,815.80
2018,08,04,14,30,814.00
2018,08,04,14,31,813.50
2018,08,04,14,32,812.80
2018,08,04,14,33,813.00
2018,08,04,14,34,810.70
2018,08,04,14,35,813.00
2018,08,04,14,36,810.40
2018,08,04,14,37,808.70
2018,08,04,14,38,807.00
2018,08,04,14,39,806.20
2018,08,04,14,40,804.00
2018,08,04,14,41,804.30
2018,08,04,14,42,803.50
2018,08,04,14,43,803.10
2018,08,04,14,44,804.60
2018,08,04,14,45,802.30
2018,08,04,14,46,802.60
2018,08,04,14,47,801.00
2018,08,04,14,48,800.00
2018,08,04,14,49,796.90
2018,08,04,14,50,796.00
2018,08,04,14,51,796.00
2018,08,04,14,52,795.80
2018,08,04,14,53,794.20
2018,08,04,14,54,793.00
2018,08,04,14,55,791.80
2018,08,04,14,56,791.00
2018,08,04,14,57,791.00
2018,08,04,14,58,788.00
2018,08,04,14,59,788.00
2018,08,04,15,00,786.50
2018,08,04,15,01,784.00
2018,08,04,15,02,784.00
2018,08,04,15,03,782.40
2018,08,04,15,04,780.30
2018,08,04,15,05,781.60
2018,08,04,15,06,778.50
2018,08,04,15,07,776.20
2018,08,04,15,08,776.00
2018,08,04,15,09,775.70
2018,08,04,15,10,775.00
2018,08,04,15,11,772.20
2018,08,04,15,12,770.00
2018,08,04,15,13,769.40
2018,08,04,15,14,768.00
2018,08,04,15,15,767.00
2018,08,04,15,16,765.40
2018,08,04,15,17,765.00
2018,08,04,15,18,763.30
2018,08,04,15,19,761.00
2018,08,04,15,20,760.20
2018,08,04,15,21,758.00
2018,08,04,15,22,757.00
2018,08,04,15,23,753.50
2018,08,04,15,24,753.50
2018,08,04,15,25,751.30
2018,08,04,15,26,751.00
2018,08,04,15,27,750.40
2018,08,04,15,28,748.20
2018,08,04,15,29,746.00
2018,08,04,15,30,744.30
2018,08,04,15,31,744.00
2018,08,04,15,32,742.20
2018,08,04,15,33,739.60
2018,08,04,15,34,737.00
2018,08,04,15,35,736.20
2018,08,04,15,36,734.00
2018,08,04,15,37,733.00
2018,08,04,15,38,733.00
2018,08,04,15,39,731.20
2018,08,04,15,40,727.70
2018,08,04,15,41,726.00
2018,08,04,15,42,726.00
2018,08,04,15,43,723.40
2018,08,04,15,44,721.60
2018,08,04,15,45,719.70
2018,08,04,15,46,715.50
2018,08,04,15,47,716.70
2018,08,04,15,48,714.70
2018,08,04,15,49,712.30
2018,08,04,15,50,708.90
2018,08,04,15,51,708.00
2018,08,04,15,52,708.00
2018,08,04,15,53,705.20
2018,08,04,15,54,703.00
2018,08,04,15,55,702.40
2018,08,04,15,56,701.00
2018,08,04,15,57,700.50
2018,08,04,15,58,697.50
2018,08,04,15,59,696.00
2018,08,04,16,00,694.20
2018,08,04,16,01,691.00
2018,08,04,16,02,690.40
2018,08,04,16,03,688.20
2018,08,04,16,04,686.50
2018,08,04,16,05,683.40
2018,08,04,16,06,683.50
2018,08,04,16,07,685.70
2018,08,04,16,08,679.00
2018,08,04,16,09,677.90
2018,08,04,16,10,674.20
2018,08,04,16,11,673.00
2018,08,04,16,12,671.00
2018,08,04,16,13,668.50
2018,08,04,16,14,666.30
2018,08,04,16,15,664.00
2018,08,04,16,16,664.00
2018,08,04,16,17,662.10
2018,08,04,16,18,658.00
2018,08,04,16,19,656.40
2018,08,04,16,20,654.50
2018,08,04,16,21,652.10
2018,08,04,16,22,649.60
2018,08,04,16,23,646.40
2018,08,04,16,24,645.00
2018,08,04,16,25,645.00
2018,08,04,16,26,643.00
2018,08,04,16,27,640.40
2018,08,04,16,28,638.30
2018,08,04,16,29,635.90
2018,08,04,16,30,634.40
2018,08,04,16,31,633.00
2018,08,04,16,32,630.90
2018,08,04,16,33,627.10
2018,08,04,16,34,624.50
2018,08,04,16,35,622.20
2018,08,04,16,36,620.40
2018,08,04,16,37,616.50
2018,08,04,16,38,614.20
2018,08,04,16,39,613.00
2018,08,04,16,40,611.10
2018,08,04,16,41,608.50
2018,08,04,16,42,606.20
2018,08,04,16,43,603.00
2018,08,04,16,44,601.90
2018,08,04,16,45,598.60
2018,08,04,16,46,597.00
2018,08,04,16,47,594.80
2018,08,04,16,48,591.70
2018,08,04,16,49,589.10
2018,08,04,16,50,586.70
2018,08,04,16,51,584.70
2018,08,04,16,52,583.20
2018,08,04,16,53,581.00
2018,08,04,16,54,578.10
2018,08,04,16,55,574.00
2018,08,04,16,56,574.70
2018,08,04,16,57,570.60
2018,08,04,16,58,566.90
2018,08,04,16,59,564.00
2018,08,04,17,00,563.50
2018,08,04,17,01,560.40
2018,08,04,17,02,557.50
2018,08,04,17,03,555.10
2018,08,04,17,04,551.40
2018,08,04,17,05,548.00
2018,08,04,17,06,547.60
2018,08,04,17,07,546.00
2018,08,04,17,08,543.80
2018,08,04,17,09,541.50